Regional Weather Roundup
Issued by NWS Cleveland, OH

Home | Current Version | Previous Version | Graphics & Text | Print | Product List | Glossary On
Versions: 1 2 3 4 5 6 7 8 9 10 11 12 13 14 15 16 17 18 19 20 21 22 23 24 25 26 27 28 29 30 31 32 33 34 35 36 37 38 39 40 41 42 43 44 45 46 47 48 49 50
000
ASUS41 KCLE 191810
RWRCLE
OHIO REGIONAL WEATHER ROUNDUP
NATIONAL WEATHER SERVICE WILMINGTON, OH
100 PM EST FRI DEC 19 2014

NOTE: "FAIR" INDICATES FEW OR NO CLOUDS BELOW 12,000 FEET WITH NO
SIGNIFICANT WEATHER AND/OR OBSTRUCTIONS TO VISIBILITY.

OHZ001>008-015>018-024>027-034-035-043-044-191900-
   NORTHWEST OHIO

CITY           SKY/WX    TMP DP  RH WIND       PRES   REMARKS
DEFIANCE       CLOUDY    31  23  72 CALM      30.27S
FINDLAY        CLOUDY    31  25  78 W7        30.25F WCI  24
TOLEDO EXPRESS CLOUDY    30  25  81 CALM      30.25F
TOLEDO METCALF CLOUDY    30  24  78 E3        30.27F
LIMA           CLOUDY    31  24  75 W5        30.24F HAZE    WCI  26
$$

OHZ009>014-019>023-028>033-038-089-191900-
   NORTHEAST OHIO

CITY           SKY/WX    TMP DP  RH WIND       PRES   REMARKS
CLE-HOPKINS    CLOUDY    31  23  72 N8        30.25F WCI  23
CLE-LAKEFRONT  CLOUDY    32  23  69 NW10      30.23F WCI  24
CUY CO. ARPT   CLOUDY    34  25  69 N9        30.23S WCI  26
LORAIN-ELYRIA  CLOUDY    30  24  78 NW8       30.24F WCI  22
ASHTABULA      CLOUDY    30  22  72 N12       30.21S WCI  20
AKRON-CANTON   CLOUDY    31  24  75 NW8       30.20F WCI  23
WOOSTER        CLOUDY    29  25  85 NW7       30.22F WCI  22
MANSFIELD      CLOUDY    28  25  88 NW5       30.22F WCI  23
YOUNGSTOWN     CLOUDY    31  24  75 NW7       30.19S WCI  24
$$

OHZ042-051>053-060>062-070>072-077>081-191900-
  SOUTHWEST OHIO

CITY           SKY/WX    TMP DP  RH WIND       PRES   REMARKS
CINC-COVINGTON CLOUDY    30  19  63 CALM      30.26F
CINC-LUNKEN    CLOUDY    30  21  69 CALM      30.29F
HAMILTON       CLOUDY    31  22  69 CALM      30.29F
DAYTON         CLOUDY    30  23  75 CALM      30.25F
WRIGHT-PAT AFB CLOUDY    29  22  73 VRB3      30.25F
DAYTON GENERAL CLOUDY    29  21  72 CALM      30.25F
WILMINGTON     CLOUDY    29  21  72 S3        30.25S
$$

OHZ036-037-039>041-045>050-054>059-063>069-073>076-082>088-191900-
  CENTRAL AND SOUTHEAST OHIO

CITY           SKY/WX    TMP DP  RH WIND       PRES   REMARKS
COLUMBUS       CLOUDY    30  23  75 N5        30.25F WCI  25
OSU AIRPORT    CLOUDY    30  23  75 NW5       30.24F HAZE    WCI  25
BOLTON FIELD   CLOUDY    28  25  86 CALM      30.25F
RICKENBACK AFB CLOUDY    30  23  77 NW3       30.25F
NEWARK         CLOUDY    31  23  72 NW5       30.24F WCI  26
MARION         CLOUDY    29  24  82 W6        30.25F HAZE    WCI  23
LANCASTER      CLOUDY    30  23  75 CALM      30.25F
ZANESVILLE     CLOUDY    29  23  78 VRB5      30.24F WCI  24
NEW PHILLY     CLOUDY    31  25  78 NW6       30.23F WCI  25
$$



USA.gov is the U.S. government's official web portal to all federal, state and local government web resources and services.